TimeCST,TemperatureF,Dew PointF,Humidity,Sea Level PressureIn,VisibilityMPH,Wind Direction,Wind SpeedMPH,Gust SpeedMPH,PrecipitationIn,Events,Conditions,WindDirDegrees,DateUTC
12:15 AM,57.2,44.6,63,29.82,10.0,South,8.1,-,N/A,,Clear,180,2013-01-12 06:15:00
12:35 AM,57.2,44.6,63,29.82,10.0,South,10.4,-,N/A,,Clear,190,2013-01-12 06:35:00
12:55 AM,57.2,44.6,63,29.82,10.0,South,8.1,-,N/A,,Clear,180,2013-01-12 06:55:00
1:15 AM,57.2,44.6,63,29.82,10.0,South,10.4,-,N/A,,Clear,180,2013-01-12 07:15:00
1:55 AM,57.2,46.4,67,29.83,10.0,South,10.4,-,N/A,,Clear,190,2013-01-12 07:55:00
2:15 AM,57.2,46.4,67,29.84,10.0,South,9.2,-,N/A,,Clear,190,2013-01-12 08:15:00
2:35 AM,57.2,46.4,67,29.85,10.0,South,9.2,-,N/A,,Clear,190,2013-01-12 08:35:00
2:55 AM,57.2,46.4,67,29.85,10.0,SSW,5.8,-,N/A,,Scattered Clouds,210,2013-01-12 08:55:00
3:15 AM,57.2,48.2,72,29.85,10.0,SSW,6.9,-,N/A,,Mostly Cloudy,200,2013-01-12 09:15:00
3:35 AM,57.2,48.2,72,29.85,10.0,SW,5.8,-,N/A,,Overcast,220,2013-01-12 09:35:00
3:55 AM,57.2,48.2,72,29.86,10.0,WSW,5.8,-,N/A,,Overcast,250,2013-01-12 09:55:00
4:15 AM,57.2,48.2,72,29.86,10.0,West,6.9,-,N/A,,Overcast,260,2013-01-12 10:15:00
4:35 AM,57.2,48.2,72,29.86,10.0,WSW,8.1,-,N/A,,Overcast,240,2013-01-12 10:35:00
4:55 AM,57.2,48.2,72,29.85,10.0,WSW,4.6,-,N/A,,Overcast,240,2013-01-12 10:55:00
5:35 AM,57.2,48.2,72,29.83,10.0,Calm,Calm,-,N/A,,Overcast,0,2013-01-12 11:35:00
5:55 AM,55.4,48.2,77,29.81,10.0,ENE,4.6,-,N/A,,Overcast,60,2013-01-12 11:55:00
6:15 AM,55.4,48.2,77,29.84,10.0,Calm,Calm,-,N/A,,Overcast,0,2013-01-12 12:15:00
6:35 AM,55.4,48.2,77,29.85,10.0,North,3.5,-,N/A,,Overcast,350,2013-01-12 12:35:00
6:55 AM,55.4,48.2,77,29.87,10.0,NNW,3.5,-,N/A,,Overcast,330,2013-01-12 12:55:00
7:15 AM,55.4,42.8,63,29.88,10.0,North,18.4,23.0,N/A,,Overcast,350,2013-01-12 13:15:00
7:35 AM,51.8,28.4,41,29.89,10.0,NNE,13.8,-,N/A,,Overcast,20,2013-01-12 13:35:00
7:55 AM,51.8,28.4,41,29.90,10.0,North,9.2,-,N/A,,Overcast,10,2013-01-12 13:55:00
8:15 AM,51.8,28.4,41,29.91,10.0,North,11.5,-,N/A,,Overcast,10,2013-01-12 14:15:00
8:35 AM,50.0,28.4,43,29.92,10.0,North,11.5,-,N/A,,Overcast,350,2013-01-12 14:35:00
9:55 AM,48.2,32.0,54,29.88,10.0,NNE,15.0,-,N/A,,Overcast,30,2013-01-12 15:55:00
10:15 AM,46.4,33.8,62,29.89,10.0,North,16.1,-,N/A,,Overcast,10,2013-01-12 16:15:00
10:35 AM,46.4,33.8,62,29.91,10.0,North,11.5,-,N/A,,Overcast,10,2013-01-12 16:35:00
10:55 AM,44.6,33.8,66,29.91,10.0,North,13.8,-,N/A,,Overcast,10,2013-01-12 16:55:00
11:55 AM,42.8,30.2,61,29.90,10.0,NNE,13.8,-,N/A,,Overcast,30,2013-01-12 17:55:00
12:15 PM,41.0,33.8,76,29.88,8.0,North,11.5,-,N/A,,Overcast,360,2013-01-12 18:15:00
12:55 PM,39.2,33.8,81,29.86,10.0,NNE,10.4,18.4,0.02,,Overcast,20,2013-01-12 18:55:00
1:35 PM,37.4,33.8,87,29.84,9.0,NE,11.5,-,0.04,,Overcast,40,2013-01-12 19:35:00
2:15 PM,37.4,33.8,87,29.81,10.0,NNE,13.8,-,0.06,,Overcast,20,2013-01-12 20:15:00
2:55 PM,35.6,30.2,81,29.80,5.0,NE,11.5,20.7,0.18,,Overcast,40,2013-01-12 20:55:00
3:15 PM,35.6,32.0,87,29.86,4.0,NW,9.2,-,0.06,,Overcast,310,2013-01-12 21:15:00
3:55 PM,35.6,30.2,81,29.82,10.0,NNE,11.5,20.7,0.11,,Overcast,20,2013-01-12 21:55:00
4:15 PM,35.6,30.2,81,29.81,10.0,NNE,12.7,21.9,0.01,,Overcast,30,2013-01-12 22:15:00
4:35 PM,33.8,30.2,87,29.80,10.0,NNE,13.8,19.6,0.01,,Overcast,20,2013-01-12 22:35:00
5:15 PM,33.8,30.2,87,29.76,10.0,NE,25.3,28.8,N/A,,Overcast,40,2013-01-12 23:15:00
5:35 PM,33.8,30.2,87,29.81,10.0,NNE,18.4,23.0,N/A,,Overcast,20,2013-01-12 23:35:00
5:55 PM,33.8,28.4,81,29.84,4.0,North,13.8,-,N/A,,Overcast,360,2013-01-12 23:55:00
6:35 PM,33.8,28.4,81,29.85,10.0,North,18.4,23.0,N/A,,Overcast,360,2013-01-13 00:35:00
7:15 PM,32.0,28.4,87,29.88,5.0,North,17.3,23.0,0.04,,Overcast,10,2013-01-13 01:15:00
7:35 PM,32.0,28.4,87,29.87,9.0,North,17.3,23.0,0.05,,Overcast,10,2013-01-13 01:35:00
7:55 PM,32.0,28.4,87,29.89,5.0,NNE,10.4,19.6,0.05,,Overcast,20,2013-01-13 01:55:00
8:15 PM,32.0,28.4,87,29.90,10.0,NNE,11.5,17.3,0.01,,Overcast,20,2013-01-13 02:15:00
8:35 PM,32.0,28.4,87,29.91,10.0,North,13.8,17.3,0.01,,Overcast,10,2013-01-13 02:35:00
8:55 PM,32.0,28.4,87,29.91,10.0,North,10.4,-,0.01,,Overcast,10,2013-01-13 02:55:00
9:15 PM,32.0,28.4,87,29.90,10.0,North,13.8,-,N/A,,Overcast,360,2013-01-13 03:15:00
9:35 PM,30.2,26.6,86,29.91,10.0,North,15.0,19.6,N/A,,Overcast,10,2013-01-13 03:35:00
9:55 PM,30.2,26.6,86,29.91,10.0,North,11.5,-,N/A,,Overcast,10,2013-01-13 03:55:00
10:15 PM,30.2,26.6,86,29.93,10.0,North,11.5,16.1,N/A,,Overcast,350,2013-01-13 04:15:00
10:35 PM,30.2,26.6,86,29.92,10.0,NNE,10.4,-,N/A,,Overcast,20,2013-01-13 04:35:00
10:55 PM,30.2,26.6,86,29.91,10.0,North,11.5,-,N/A,,Overcast,360,2013-01-13 04:55:00
11:15 PM,30.2,26.6,86,29.92,10.0,North,13.8,-,N/A,,Overcast,360,2013-01-13 05:15:00
11:35 PM,30.2,26.6,86,29.93,10.0,North,13.8,-,N/A,,Overcast,10,2013-01-13 05:35:00
11:55 PM,30.2,26.6,86,29.93,10.0,North,13.8,-,N/A,,Overcast,10,2013-01-13 05:55:00